User: anonymous   Login
Location: Unspecified
(0.0000°N, 0.0000°E)
Time: 19:58:30
(UTC+00:00)
Language:

GONETS M 10 (M20) - Orbit

View from above orbital plane
View from above orbital plane
View from above satellite
View from above satellite

Ground track
Ground track

The orbit data is extracted from the following two-line orbital elements,

1 40063U 14036C   18171.65409094 -.00000011 +00000-0 -14967-3 0  9996
2 40063 082.5086 320.2097 0021493 027.6284 332.5931 12.42872412179898
Epoch (UTC): 20 June 2018 15:41:53
Eccentricity: 0.0021493
inclination: 82.5086°
perigee height: 1477 km
apogee height: 1511 km
right ascension of ascending node: 320.2097°
argument of perigee: 27.6284°
revolutions per day: 12.42872412
mean anomaly at epoch: 332.5931°
orbit number at epoch: 17989

The dashed part of the orbit path shows where the satellite is in the earth's shadow,  

DLR